Weather in Makarkino

Russia / Mari El Republic     56°09′39″N   46°15′29″E
temp.,
°C
wind,
m/s
gust,
m/s
humid.,
%
clouds,
%
prec.,
mm/h
press.,
hPa
HPBL,
m
19 january, wed
wed1900:00−6nw3796100 1.1 1008297
03:00−9nw3695100 1.4 1011241
06:00−10wnw2496100 0.0 1012140
09:00−13w1298100 0.0 101448
12:00−12wnw139569 0.0 1015137
15:00−14ssw119872 0.0 10159
18:00−20sw22100100 0.0 101612
21:00−22ssw22100100 0.0 101617
20 january, thu
thu2000:00−21ssw3510093 0.0 101665
03:00−19ssw3910092 0.0 1016120
06:00−17ssw41296100 0.0 1016189
09:00−13ssw5139299 0.0 1015289
12:00−10ssw51492100 0.0 1015369
15:00−9ssw5149193 0.0 1014436
18:00−10s6149173 0.0 1014373
21:00−12s5149150 0.0 1014329
21 january, fri
fri2100:00−12s5149062 0.0 1015339
03:00−13s5149143 0.0 1015302
06:00−14s51491100 0.0 1015313
09:00−14s51490100 0.0 1016318
12:00−10s5158897 0.0 1016443
15:00−9se5128789 0.0 1015396
18:00−11se5139130 0.0 1015283
21:00−12se5149129 0.0 1015320
22 january, sat
sat2200:00−11se61591100 0.0 1015386
03:00−10se61590100 0.0 1015467
06:00−9se61393100 0.1 1015523
09:00−8se51194100 1.0 1017523
12:00−7se4894100 0.4 1018455
15:00−7se379497 0.8 1020365
18:00−13ese229975 0.1 102234
21:00−15ese2210088 0.1 102312
23 january, sun
sun2300:00−16ese2110092 0.1 102411
03:00−16e1210098 0.1 102519
06:00−9ne2496100 0.7 1024134
09:00−7ene2596100 1.9 1025192
12:00−5e1294100 0.8 1026232
15:00−6wnw119882 0.9 102820
18:00−13wsw1110094 0.0 10309
21:00−15ssw11100100 0.1 10329